| time (UTC) | temp C | wind direction | speed KPH | gust KPH | rain 1hr cm | rain 24hr cm | rain mn cm | humidity % | barometer mb |
| 20260505063548 | 16 | 233 | 4.8 | 22.5 | 0.00 | 0.00 | 0.00 | 68 | 1002.4 |
| 20260505063048 | 16 | 200 | 8.0 | 16.1 | 0.00 | 0.00 | 0.00 | 68 | 1002.3 |
| 20260505062546 | 16 | 234 | 4.8 | 16.1 | 0.00 | 0.00 | 0.00 | 68 | 1002.4 |
| 20260505062047 | 16 | 234 | 4.8 | 16.1 | 0.00 | 0.00 | 0.00 | 68 | 1002.4 |
| 20260505061610 | 16 | 213 | 4.8 | 14.5 | 0.00 | 0.00 | 0.00 | 68 | 1002.4 |
| 20260505061045 | 16 | 221 | 4.8 | 14.5 | 0.00 | 0.00 | 0.00 | 67 | 1002.3 |
| 20260505060545 | 16 | 200 | 3.2 | 11.3 | 0.00 | 0.00 | 0.00 | 67 | 1002.3 |
| 20260505060051 | 16 | 207 | 1.6 | 11.3 | 0.00 | 0.00 | 0.00 | 66 | 1002.3 |
| 20260505055544 | 16 | 224 | 1.6 | 11.3 | 0.00 | 0.00 | 0.00 | 66 | 1002.3 |
| 20260505055043 | 16 | 194 | 1.6 | 9.7 | 0.00 | 0.00 | 0.00 | 65 | 1002.4 |
| 20260505054548 | 16 | 178 | 3.2 | 9.7 | 0.00 | 0.00 | 0.00 | 65 | 1002.3 |
| 20260505054043 | 16 | 227 | 1.6 | 11.3 | 0.00 | 0.00 | 0.00 | 64 | 1002.5 |
| 20260505053542 | 16 | 195 | 1.6 | 12.9 | 0.00 | 0.00 | 0.00 | 64 | 1002.4 |
| 20260505053043 | 16 | 204 | 1.6 | 12.9 | 0.00 | 0.00 | 0.00 | 62 | 1002.4 |
| 20260505052544 | 16 | 200 | 3.2 | 12.9 | 0.00 | 0.00 | 0.00 | 61 | 1002.4 |
| 20260505052041 | 16 | 202 | 3.2 | 17.7 | 0.00 | 0.00 | 0.00 | 61 | 1002.4 |
| 20260505051642 | 16 | 234 | 3.2 | 17.7 | 0.00 | 0.00 | 0.00 | 60 | 1002.4 |
| 20260505051041 | 16 | 201 | 3.2 | 17.7 | 0.00 | 0.00 | 0.00 | 59 | 1002.4 |
| 20260505050540 | 16 | 195 | 4.8 | 17.7 | 0.00 | 0.00 | 0.00 | 58 | 1002.4 |
| 20260505041534 | 17 | 232 | 3.2 | 12.9 | 0.00 | 0.00 | 0.00 | 55 | 1002.7 |
| 20260505041034 | 16 | 212 | 4.8 | 12.9 | 0.00 | 0.00 | 0.00 | 55 | 1002.8 |
| 20260505040534 | 16 | 227 | 3.2 | 19.3 | 0.00 | 0.00 | 0.00 | 56 | 1002.6 |
| 20260505040039 | 16 | 214 | 8.0 | 19.3 | 0.00 | 0.00 | 0.00 | 56 | 1002.6 |
| 20260505035531 | 15 | 209 | 3.2 | 19.3 | 0.00 | 0.00 | 0.00 | 56 | 1002.6 |
| 20260505035028 | 15 | 181 | 4.8 | 11.3 | 0.00 | 0.00 | 0.00 | 55 | 1002.6 |
| 20260505034536 | 15 | 210 | 3.2 | 9.7 | 0.00 | 0.00 | 0.00 | 56 | 1002.6 |
| 20260505034029 | 15 | 186 | 3.2 | 9.7 | 0.00 | 0.00 | 0.00 | 56 | 1002.5 |
| 20260505033529 | 15 | 207 | 3.2 | 11.3 | 0.00 | 0.00 | 0.00 | 56 | 1002.5 |
| 20260505033028 | 15 | 211 | 3.2 | 9.7 | 0.00 | 0.00 | 0.00 | 58 | 1002.5 |
| 20260505032529 | 14 | 196 | 3.2 | 9.7 | 0.00 | 0.00 | 0.00 | 58 | 1002.5 |
| 20260505032033 | 14 | 191 | 3.2 | 9.7 | 0.00 | 0.00 | 0.00 | 58 | 1002.6 |
| 20260505031528 | 14 | 219 | 3.2 | 9.7 | 0.00 | 0.00 | 0.00 | 58 | 1002.7 |
| 20260505031030 | 13 | 193 | 3.2 | 9.7 | 0.00 | 0.00 | 0.00 | 57 | 1002.7 |
| 20260505030527 | 13 | 211 | 3.2 | 8.0 | 0.00 | 0.00 | 0.00 | 58 | 1002.6 |
| 20260505030028 | 13 | 198 | 1.6 | 6.4 | 0.00 | 0.00 | 0.00 | 58 | 1002.6 |
| 20260505025530 | 13 | 210 | 1.6 | 4.8 | 0.00 | 0.00 | 0.00 | 58 | 1002.6 |
| 20260505025031 | 13 | 194 | 1.6 | 6.4 | 0.00 | 0.00 | 0.00 | 58 | 1002.6 |
| 20260505024529 | 13 | 192 | 1.6 | 6.4 | 0.00 | 0.00 | 0.00 | 56 | 1002.6 |
| 20260505024026 | 13 | 202 | 0.0 | 1.6 | 0.00 | 0.00 | 0.00 | 54 | 1002.6 |
| 20260505023526 | 14 | 199 | 0.0 | 1.6 | 0.00 | 0.00 | 0.00 | 54 | 1002.6 |
| 20260505023026 | 14 | 223 | 0.0 | 1.6 | 0.00 | 0.00 | 0.00 | 53 | 1002.7 |
| 20260505022526 | 14 | 223 | 0.0 | 0.0 | 0.00 | 0.00 | 0.00 | 53 | 1002.7 |
| 20260505022029 | 14 | 223 | 0.0 | 3.2 | 0.00 | 0.00 | 0.00 | 53 | 1002.8 |
| 20260505021526 | 14 | 223 | 0.0 | 3.2 | 0.00 | 0.00 | 0.00 | 52 | 1002.9 |
| 20260505021028 | 14 | 216 | 0.0 | 0.0 | 0.00 | 0.00 | 0.00 | 54 | 1002.9 |
| 20260505020850 | 14 | 216 | 0.0 | 0.0 | 0.00 | 0.00 | 0.00 | 54 | 1003.1 |
| 20260505020511 | 13 | 216 | 0.0 | 0.0 | 0.00 | 0.00 | 0.00 | 54 | 1002.8 |
| 20260505020013 | 13 | 216 | 0.0 | 3.2 | 0.00 | 0.00 | 0.00 | 53 | 1002.8 |
| 20260505015511 | 13 | 216 | 0.0 | 8.0 | 0.00 | 0.00 | 0.00 | 54 | 1002.8 |
| 20260505015014 | 13 | 217 | 0.0 | 9.7 | 0.00 | 0.00 | 0.00 | 54 | 1002.8 |
| 20260505014512 | 13 | 211 | 0.0 | 6.4 | 0.00 | 0.00 | 0.00 | 55 | 1002.8 |
| 20260505014010 | 13 | 188 | 0.0 | 0.0 | 0.00 | 0.00 | 0.00 | 55 | 1002.8 |
| 20260505013510 | 14 | 188 | 0.0 | 0.0 | 0.00 | 0.00 | 0.00 | 54 | 1002.6 |
| 20260505013010 | 14 | 188 | 0.0 | 0.0 | 0.00 | 0.00 | 0.00 | 55 | 1002.6 |
| 20260505012510 | 14 | 188 | 0.0 | 0.0 | 0.00 | 0.00 | 0.00 | 53 | 1002.6 |
| 20260505012010 | 15 | 188 | 0.0 | 1.6 | 0.00 | 0.00 | 0.00 | 52 | 1002.6 |
| 20260505011511 | 15 | 188 | 0.0 | 1.6 | 0.00 | 0.00 | 0.00 | 52 | 1002.6 |
| 20260505011012 | 15 | 188 | 0.0 | 0.0 | 0.00 | 0.00 | 0.00 | 53 | 1002.6 |
| 20260505010510 | 15 | 188 | 0.0 | 0.0 | 0.00 | 0.00 | 0.00 | 51 | 1002.5 |
| 20260505010010 | 15 | 188 | 0.0 | 0.0 | 0.00 | 0.00 | 0.00 | 50 | 1002.5 |
| 20260505005509 | 15 | 188 | 0.0 | 0.0 | 0.00 | 0.00 | 0.00 | 50 | 1002.5 |
| 20260505005011 | 16 | 188 | 0.0 | 1.6 | 0.00 | 0.00 | 0.00 | 52 | 1002.5 |
| 20260505004515 | 16 | 188 | 0.0 | 0.0 | 0.00 | 0.00 | 0.00 | 51 | 1002.5 |
| 20260505004009 | 16 | 188 | 0.0 | 0.0 | 0.00 | 0.00 | 0.00 | 49 | 1002.5 |
| 20260505003512 | 16 | 188 | 0.0 | 3.2 | 0.00 | 0.00 | 0.00 | 51 | 1002.5 |
| 20260505003009 | 17 | 188 | 0.0 | 3.2 | 0.00 | 0.00 | 0.00 | 52 | 1002.5 |
| 20260505002511 | 17 | 188 | 0.0 | 0.0 | 0.00 | 0.00 | 0.00 | 44 | 1002.4 |
| 20260505002009 | 17 | 188 | 0.0 | 0.0 | 0.00 | 0.00 | 0.00 | 44 | 1002.4 |
| 20260505001509 | 18 | 188 | 0.0 | 0.0 | 0.00 | 0.00 | 0.00 | 48 | 1002.4 |
| 20260505001012 | 18 | 188 | 0.0 | 0.0 | 0.00 | 0.00 | 0.00 | 43 | 1002.4 |
| 20260505000508 | 18 | 188 | 0.0 | 0.0 | 0.00 | 0.00 | 0.00 | 41 | 1002.5 |
| 20260505000008 | 18 | 188 | 0.0 | 0.0 | 0.00 | 0.00 | 0.00 | 40 | 1002.4 |
| 20260504235507 | 19 | 188 | 0.0 | 0.0 | 0.00 | 0.00 | 0.00 | 41 | 1002.3 |
| 20260504235008 | 19 | 188 | 0.0 | 0.0 | 0.00 | 0.00 | 0.00 | 39 | 1002.4 |
| 20260504234510 | 20 | 188 | 0.0 | 0.0 | 0.00 | 0.00 | 0.00 | 39 | 1002.3 |
| 20260504234007 | 20 | 188 | 0.0 | 0.0 | 0.00 | 0.00 | 0.00 | 39 | 1002.4 |
| 20260504233507 | 20 | 188 | 0.0 | 0.0 | 0.00 | 0.00 | 0.00 | 38 | 1002.4 |
| 20260504233007 | 20 | 188 | 0.0 | 0.0 | 0.00 | 0.00 | 0.00 | 38 | 1002.4 |
| 20260504232507 | 20 | 188 | 0.0 | 0.0 | 0.00 | 0.00 | 0.00 | 38 | 1002.3 |
| 20260504232006 | 21 | 188 | 0.0 | 0.0 | 0.00 | 0.00 | 0.00 | 38 | 1002.3 |
| 20260504231506 | 21 | 188 | 0.0 | 1.6 | 0.00 | 0.00 | 0.00 | 38 | 1002.3 |
| 20260504231010 | 21 | 188 | 0.0 | 1.6 | 0.00 | 0.00 | 0.00 | 38 | 1002.3 |
| 20260504230506 | 21 | 188 | 0.0 | 1.6 | 0.00 | 0.00 | 0.00 | 37 | 1002.3 |
| 20260504230006 | 21 | 188 | 0.0 | 4.8 | 0.00 | 0.00 | 0.00 | 36 | 1002.2 |
| 20260504225505 | 21 | 219 | 0.0 | 4.8 | 0.00 | 0.00 | 0.00 | 35 | 1002.2 |
| 20260504225005 | 21 | 259 | 0.0 | 6.4 | 0.00 | 0.00 | 0.00 | 34 | 1002.2 |
| 20260504224505 | 21 | 225 | 0.0 | 8.0 | 0.00 | 0.00 | 0.00 | 35 | 1002.3 |
| 20260504224004 | 21 | 234 | 1.6 | 8.0 | 0.00 | 0.00 | 0.00 | 34 | 1002.2 |
| 20260504223504 | 21 | 289 | 1.6 | 8.0 | 0.00 | 0.00 | 0.00 | 36 | 1002.3 |
| 20260504223005 | 21 | 231 | 1.6 | 9.7 | 0.00 | 0.00 | 0.00 | 34 | 1002.3 |
| 20260504222504 | 21 | 250 | 1.6 | 16.1 | 0.00 | 0.00 | 0.00 | 33 | 1002.4 |
| 20260504222003 | 21 | 281 | 4.8 | 16.1 | 0.00 | 0.00 | 0.00 | 32 | 1002.3 |
| 20260504221503 | 21 | 252 | 6.4 | 14.5 | 0.00 | 0.00 | 0.00 | 34 | 1002.4 |
| 20260504221003 | 22 | 180 | 3.2 | 8.0 | 0.00 | 0.00 | 0.00 | 35 | 1002.4 |
| 20260504220502 | 22 | 265 | 1.6 | 11.3 | 0.00 | 0.00 | 0.00 | 35 | 1002.5 |
| 20260504220004 | 22 | 222 | 3.2 | 11.3 | 0.00 | 0.00 | 0.00 | 33 | 1002.5 |
| 20260504215501 | 22 | 224 | 3.2 | 17.7 | 0.00 | 0.00 | 0.00 | 34 | 1002.5 |
| 20260504215003 | 22 | 279 | 4.8 | 17.7 | 0.00 | 0.00 | 0.00 | 35 | 1002.6 |
| 20260504214601 | 22 | 279 | 6.4 | 17.7 | 0.00 | 0.00 | 0.00 | 34 | 1002.6 |
| 20260504214500 | 22 | 227 | 3.2 | 14.5 | 0.00 | 0.00 | 0.00 | 36 | 1002.6 |
| 20260504214100 | 22 | 236 | 3.2 | 19.3 | 0.00 | 0.00 | 0.00 | 33 | 1002.6 |
| 20260504213600 | 22 | 304 | 4.8 | 19.3 | 0.00 | 0.00 | 0.00 | 33 | 1002.7 |
| 20260504213111 | 22 | 302 | 4.8 | 16.1 | 0.00 | 0.00 | 0.00 | 34 | 1002.7 |
| 20260504212600 | 22 | 173 | 4.8 | 17.7 | 0.00 | 0.00 | 0.00 | 33 | 1002.6 |
| 20260504212059 | 22 | 22 | 4.8 | 17.7 | 0.00 | 0.00 | 0.00 | 33 | 1002.8 |
| 20260504212001 | 22 | 360 | 8.0 | 17.7 | 0.00 | 0.00 | 0.00 | 34 | 1002.7 |
| 20260504211559 | 22 | 132 | 4.8 | 16.1 | 0.00 | 0.00 | 0.00 | 33 | 1002.8 |
| 20260504211058 | 22 | 269 | 1.6 | 11.3 | 0.00 | 0.00 | 0.00 | 38 | 1002.8 |
| 20260504210600 | 22 | 287 | 3.2 | 20.9 | 0.00 | 0.00 | 0.00 | 38 | 1002.8 |
| 20260504210104 | 22 | 260 | 6.4 | 20.9 | 0.00 | 0.00 | 0.00 | 34 | 1002.8 |
| 20260504205558 | 22 | 238 | 1.6 | 14.5 | 0.00 | 0.00 | 0.00 | 43 | 1002.8 |
| 20260504205059 | 22 | 221 | 3.2 | 14.5 | 0.00 | 0.00 | 0.00 | 39 | 1002.8 |
| 20260504204603 | 22 | 317 | 4.8 | 17.7 | 0.00 | 0.00 | 0.00 | 38 | 1002.9 |
| 20260504204055 | 22 | 288 | 8.0 | 17.7 | 0.00 | 0.00 | 0.00 | 35 | 1003.0 |
| 20260504203555 | 22 | 302 | 3.2 | 16.1 | 0.00 | 0.00 | 0.00 | 37 | 1003.0 |
| 20260504203057 | 22 | 281 | 6.4 | 16.1 | 0.00 | 0.00 | 0.00 | 38 | 1003.1 |
| 20260504202554 | 22 | 309 | 6.4 | 16.1 | 0.00 | 0.00 | 0.00 | 38 | 1003.1 |
| 20260504202053 | 22 | 215 | 4.8 | 16.1 | 0.00 | 0.00 | 0.00 | 40 | 1003.2 |
| 20260504201552 | 22 | 271 | 4.8 | 24.1 | 0.00 | 0.00 | 0.00 | 40 | 1003.1 |
| 20260504201051 | 22 | 320 | 3.2 | 24.1 | 0.00 | 0.00 | 0.00 | 39 | 1003.3 |
| 20260504200551 | 22 | 181 | 9.7 | 17.7 | 0.00 | 0.00 | 0.00 | 40 | 1003.4 |
| 20260504200053 | 22 | 217 | 6.4 | 16.1 | 0.00 | 0.00 | 0.00 | 42 | 1003.4 |
| 20260504195649 | 22 | 292 | 6.4 | 19.3 | 0.00 | 0.00 | 0.00 | 41 | 1003.5 |
| 20260504195048 | 21 | 293 | 3.2 | 19.3 | 0.00 | 0.00 | 0.00 | 43 | 1003.6 |
| 20260504194548 | 21 | 171 | 3.2 | 12.9 | 0.00 | 0.00 | 0.00 | 45 | 1003.7 |
| 20260504194047 | 21 | 255 | 3.2 | 12.9 | 0.00 | 0.00 | 0.00 | 43 | 1003.7 |
| 20260504193546 | 22 | 192 | 6.4 | 20.9 | 0.00 | 0.00 | 0.00 | 45 | 1003.8 |
| 20260504193058 | 21 | 234 | 6.4 | 20.9 | 0.00 | 0.00 | 0.00 | 43 | 1003.9 |
| 20260504192545 | 21 | 217 | 6.4 | 19.3 | 0.00 | 0.00 | 0.00 | 45 | 1003.9 |
| 20260504192047 | 21 | 319 | 3.2 | 19.3 | 0.00 | 0.00 | 0.00 | 44 | 1004.0 |
| 20260504191544 | 21 | 29 | 6.4 | 19.3 | 0.00 | 0.00 | 0.00 | 44 | 1004.0 |
| 20260504191043 | 21 | 223 | 4.8 | 14.5 | 0.00 | 0.00 | 0.00 | 44 | 1004.0 |
| 20260504190543 | 21 | 293 | 1.6 | 12.9 | 0.00 | 0.00 | 0.00 | 43 | 1004.1 |
| 20260504190046 | 20 | 294 | 1.6 | 16.1 | 0.00 | 0.00 | 0.00 | 47 | 1004.3 |
| 20260504185541 | 21 | 257 | 6.4 | 16.1 | 0.00 | 0.00 | 0.00 | 44 | 1004.2 |
| 20260504185040 | 21 | 288 | 4.8 | 19.3 | 0.00 | 0.00 | 0.00 | 43 | 1004.4 |
| 20260504184542 | 21 | 212 | 6.4 | 16.1 | 0.00 | 0.00 | 0.00 | 46 | 1004.5 |
| 20260504184042 | 21 | 223 | 4.8 | 12.9 | 0.00 | 0.00 | 0.00 | 48 | 1004.6 |
| 20260504183539 | 21 | 257 | 1.6 | 17.7 | 0.00 | 0.00 | 0.00 | 46 | 1004.7 |
| 20260504183044 | 21 | 184 | 6.4 | 20.9 | 0.00 | 0.00 | 0.00 | 44 | 1004.7 |
| 20260504182536 | 21 | 292 | 6.4 | 22.5 | 0.00 | 0.00 | 0.00 | 43 | 1004.7 |
| 20260504182036 | 21 | 178 | 4.8 | 19.3 | 0.00 | 0.00 | 0.00 | 46 | 1004.7 |
| 20260504181537 | 21 | 299 | 9.7 | 19.3 | 0.00 | 0.00 | 0.00 | 46 | 1004.7 |
| 20260504181036 | 21 | 188 | 8.0 | 19.3 | 0.00 | 0.00 | 0.00 | 44 | 1004.7 |
| 20260504180536 | 20 | 256 | 4.8 | 14.5 | 0.00 | 0.00 | 0.00 | 45 | 1004.7 |
| 20260504180049 | 20 | 5 | 1.6 | 14.5 | 0.00 | 0.00 | 0.00 | 51 | 1004.8 |
| 20260504175535 | 20 | 81 | 4.8 | 19.3 | 0.00 | 0.00 | 0.00 | 45 | 1004.9 |
| 20260504175033 | 20 | 190 | 6.4 | 19.3 | 0.00 | 0.00 | 0.00 | 47 | 1005.0 |
| 20260504174532 | 21 | 340 | 6.4 | 19.3 | 0.00 | 0.00 | 0.00 | 49 | 1005.0 |
| 20260504174032 | 20 | 348 | 4.8 | 17.7 | 0.00 | 0.00 | 0.00 | 50 | 1005.0 |
| 20260504173532 | 20 | 244 | 3.2 | 17.7 | 0.00 | 0.00 | 0.00 | 48 | 1005.0 |
| 20260504173031 | 20 | 322 | 4.8 | 24.1 | 0.00 | 0.00 | 0.00 | 47 | 1005.0 |
| 20260504172529 | 20 | 271 | 6.4 | 24.1 | 0.00 | 0.00 | 0.00 | 46 | 1005.1 |
| 20260504172029 | 20 | 190 | 3.2 | 17.7 | 0.00 | 0.00 | 0.00 | 47 | 1005.1 |
| 20260504171528 | 20 | 155 | 6.4 | 16.1 | 0.00 | 0.00 | 0.00 | 50 | 1005.1 |
| 20260504171028 | 20 | 185 | 3.2 | 14.5 | 0.00 | 0.00 | 0.00 | 48 | 1005.2 |
| 20260504170527 | 20 | 184 | 4.8 | 19.3 | 0.00 | 0.00 | 0.00 | 50 | 1005.2 |
| 20260504151011 | 17 | 194 | 4.8 | 17.7 | 0.00 | 0.00 | 0.00 | 54 | 1006.2 |
| 20260504150510 | 17 | 293 | 6.4 | 16.1 | 0.00 | 0.00 | 0.00 | 52 | 1006.1 |
| 20260504141001 | 15 | 196 | 4.8 | 20.9 | 0.00 | 0.00 | 0.00 | 52 | 1006.4 |
| 20260504140501 | 15 | 189 | 11.3 | 20.9 | 0.00 | 0.00 | 0.00 | 51 | 1006.5 |
| 20260504140103 | 15 | 187 | 8.0 | 24.1 | 0.00 | 0.00 | 0.00 | 52 | 1006.5 |
| 20260504130550 | 13 | 240 | 3.2 | 11.3 | 0.00 | 0.00 | 0.00 | 56 | 1007.1 |
| 20260504110536 | 10 | 210 | 4.8 | 11.3 | 0.00 | 0.00 | 0.00 | 61 | 1007.2 |
| 20260504100532 | 10 | 205 | 3.2 | 8.0 | 0.00 | 0.00 | 0.00 | 59 | 1007.1 |
| 20260504081520 | 9 | 203 | 3.2 | 12.9 | 0.00 | 0.00 | 0.00 | 59 | 1007.6 |
| 20260504081019 | 9 | 203 | 1.6 | 12.9 | 0.00 | 0.00 | 0.00 | 59 | 1007.6 |
| 20260504080519 | 9 | 246 | 3.2 | 6.4 | 0.00 | 0.00 | 0.00 | 59 | 1007.7 |